Regional Weather Roundup
Issued by NWS

Home | Current Version | Previous Version | Text Only | Print | Product List | Glossary Off
Versions: 1 2 3 4 5 6 7 8 9 10 11 12 13 14 15 16 17 18 19 20 21 22 23 24 25 26 27 28 29 30 31 32 33 34 35 36 37 38 39 40 41 42 43 44 45 46 47 48 49

000
ASUS45 KSLC 180810
RWRUT

UTAH REGIONAL WEATHER ROUNDUP
NATIONAL WEATHER SERVICE SALT LAKE CITY UT
100 AM MST THU DEC 18 2014

UTZ001>011-023>025-180900-

NORTHERN UTAH

CITY           SKY/WX    TMP DP  RH WIND       PRES   REMARKS
BRIGHAM CITY   MOCLDY    31  27  85 CALM      30.08S
HILL AFB       CLEAR     30  28  90 SE5       30.06S WCI  25
LOGAN          CLOUDY    30  26  85 CALM      30.06F
OGDEN          CLEAR     31  26  82 S8        30.06S WCI  23
PROVO AIRPORT  PTCLDY    36  28  75 CALM      30.08S
SALT LAKE CITY PTCLDY    34  31  88 SE5       30.06F WCI  30
VERNAL         CLOUDY    25  24  96 SE3       30.09F FOG
WENDOVER       CLEAR     25  21  86 CALM      30.07S
HEBER CITY     CLOUDY    28  25  86 CALM      30.05F
WEST JORDAN    PTCLDY    30  30 100 S5        30.06F WCI  25

$$

UTZ012>022-026-027-180900-

SOUTHERN/CENTRAL UTAH

CITY           SKY/WX    TMP DP  RH WIND       PRES   REMARKS
BLANDING       CLOUDY    31  31 100 CALM      30.15  VSB 1/4
BRYCE CANYON   CLOUDY    20  17  88 W3        30.06F
CEDAR CITY     CLOUDY    33  31  92 W5        30.06F WCI  29
DELTA          PTCLDY    32  30  92 S6        30.06S WCI  26
MILFORD        CLOUDY    34  30  85 SW14      30.05F WCI  25
MOAB/CYNLANDS  MOCLDY    34  34 100 NW5       30.06S WCI  30
PRICE          PTCLDY    25  19  78 N6        30.05S WCI  18
ST GEORGE      CLOUDY    45  37  76 CALM      30.12S
KANAB          CLOUDY    32  32 100 N3        30.13F

$$

REGIONAL REPORTS     COLORADO/ARIZONA

CITY           SKY/WX    TMP DP  RH WIND       PRES   REMARKS
CRAIG, CO      CLOUDY    26  25  96 SW3       30.06S FOG
GRAND JUNCTION LGT RAIN  33  33 100 N8        30.05S WCI  26
RIFLE          LGT SNOW  33  32  96 CALM      30.04S FOG
MONTROSE       CLOUDY    32  32 100 SE3       30.06F FOG
CORTEZ         LGT SNOW  33  32  96 CALM      30.09S FOG
PAGE, AZ       CLOUDY    38  34  85 CALM      30.09F FOG
GRAND CANYON   CLOUDY    31  30  96 SW5       30.10F WCI  26
KINGMAN        CLOUDY    38  35  89 S7        30.10F WCI  33
FLAGSTAFF      CLOUDY    30  28  92 SW3       30.09S

$$

REGIONAL REPORTS    NEVADA/IDAHO/WYOMING

CITY           SKY/WX    TMP DP  RH WIND       PRES   REMARKS
LAS VEGAS, NV  CLOUDY    49  43  80 CALM      30.05S
ELY            CLOUDY    26  21  81 SE8       30.06S WCI  18
ELKO           CLOUDY    27  26  96 CALM      30.06S FOG
POCATELLO, ID  CLEAR     24  24 100 NE3       30.05F FOG
BURLEY         CLEAR     27  24  89 NE3       30.03S
EVANSTON, WY   MOCLDY    23  19  85 SW6       30.03F WCI  16
ROCK SPRINGS   MOCLDY    17  14  88 CALM      30.02S
KEMMERER       CLOUDY    21  18  86 CALM      30.02S

$$



USA.gov is the U.S. government's official web portal to all federal, state and local government web resources and services.